contact:dominique.lefevre@mio.osupytheas.fr, maurice.libes@osupytheas.fr, didier.mallarino@osupytheas.fr
Project:EMSO http://www.emso-fr.org/EMSO-France
Depth: 2436.0 m
Title:EMSO Ligure Ouest : Data MII capteur CSTAR
DateTime,Latitude,Longitude,Instrument_Serial,Reference_Counts,Signal_Counts,Corrected_Signal_raw_counts,Calculated_Beam_c_inverse_meters,Internal_thermistor_counts
DateTime,Latitude,Longitude,Instrument_Serial,Reference_Counts,Signal_Counts,Corrected_Signal_raw_counts,Calculated_Beam_c_inverse_meters,Internal_thermistor_counts
2022-02-11T00:02:27,42.805,6.029,CST-1368DR,4907,6122,13322,0.636,551
2022-02-11T00:05:28,42.805,6.029,CST-1368DR,4907,6123,13323,0.635,551
2022-02-11T00:08:30,42.805,6.029,CST-1368DR,4907,6123,13324,0.635,551
2022-02-11T00:11:32,42.805,6.029,CST-1368DR,4907,6121,13320,0.636,551
2022-02-11T00:14:33,42.805,6.029,CST-1368DR,4907,6122,13322,0.636,551
2022-02-11T00:17:35,42.805,6.029,CST-1368DR,4907,6119,13315,0.638,551
2022-02-11T00:20:36,42.805,6.029,CST-1368DR,4907,6122,13322,0.636,551
2022-02-11T00:23:38,42.805,6.029,CST-1368DR,4907,6121,13321,0.636,551
2022-02-11T00:26:39,42.805,6.029,CST-1368DR,4907,6121,13319,0.636,551
2022-02-11T00:29:41,42.805,6.029,CST-1368DR,4907,6123,13323,0.635,551
2022-02-11T00:32:43,42.805,6.029,CST-1368DR,4907,6122,13322,0.636,551
2022-02-11T00:35:44,42.805,6.029,CST-1368DR,4907,6122,13322,0.636,551
2022-02-11T00:38:46,42.805,6.029,CST-1368DR,4907,6121,13320,0.636,551
2022-02-11T00:41:47,42.805,6.029,CST-1368DR,4907,6123,13324,0.635,551
2022-02-11T00:44:49,42.805,6.029,CST-1368DR,4907,6123,13324,0.635,551
2022-02-11T00:47:50,42.805,6.029,CST-1368DR,4907,6123,13323,0.635,551
2022-02-11T00:50:52,42.805,6.029,CST-1368DR,4907,6122,13323,0.635,551
2022-02-11T00:53:54,42.805,6.029,CST-1368DR,4907,6121,13321,0.636,551
2022-02-11T00:56:55,42.805,6.029,CST-1368DR,4907,6122,13323,0.635,551
2022-02-11T00:59:57,42.805,6.029,CST-1368DR,4907,6121,13320,0.636,551
2022-02-11T01:02:58,42.805,6.029,CST-1368DR,4907,6123,13323,0.635,551
2022-02-11T01:06:00,42.805,6.029,CST-1368DR,4907,6122,13323,0.635,551
2022-02-11T01:09:02,42.805,6.029,CST-1368DR,4907,6122,13323,0.635,551
2022-02-11T01:12:03,42.805,6.029,CST-1368DR,4907,6123,13324,0.635,551
2022-02-11T01:15:05,42.805,6.029,CST-1368DR,4907,6122,13323,0.635,551
2022-02-11T01:18:06,42.805,6.029,CST-1368DR,4907,6122,13323,0.635,551
2022-02-11T01:21:08,42.805,6.029,CST-1368DR,4907,6123,13323,0.635,551
2022-02-11T01:24:09,42.805,6.029,CST-1368DR,4907,6123,13324,0.635,551
2022-02-11T01:27:11,42.805,6.029,CST-1368DR,4907,6122,13322,0.636,551
2022-02-11T01:30:13,42.805,6.029,CST-1368DR,4907,6122,13322,0.636,551
2022-02-11T01:33:14,42.805,6.029,CST-1368DR,4907,6122,13322,0.636,551
2022-02-11T01:36:16,42.805,6.029,CST-1368DR,4907,6121,13319,0.636,551
2022-02-11T01:39:17,42.805,6.029,CST-1368DR,4907,6121,13320,0.636,551
2022-02-11T01:42:19,42.805,6.029,CST-1368DR,4907,6121,13320,0.636,551
2022-02-11T01:45:21,42.805,6.029,CST-1368DR,4907,6121,13321,0.636,551
2022-02-11T01:48:22,42.805,6.029,CST-1368DR,4907,6120,13318,0.637,551
2022-02-11T01:51:24,42.805,6.029,CST-1368DR,4907,6120,13317,0.637,551
2022-02-11T01:54:25,42.805,6.029,CST-1368DR,4907,6123,13323,0.635,551
2022-02-11T01:57:27,42.805,6.029,CST-1368DR,4907,6120,13318,0.637,551
2022-02-11T02:00:28,42.805,6.029,CST-1368DR,4907,6120,13318,0.637,551
2022-02-11T02:03:30,42.805,6.029,CST-1368DR,4907,6121,13321,0.636,551
2022-02-11T02:06:32,42.805,6.029,CST-1368DR,4907,6122,13322,0.636,551
2022-02-11T02:09:33,42.805,6.029,CST-1368DR,4907,6122,13323,0.635,551
2022-02-11T02:12:35,42.805,6.029,CST-1368DR,4907,6121,13320,0.636,551
2022-02-11T02:15:36,42.805,6.029,CST-1368DR,4907,6121,13321,0.636,551
2022-02-11T02:18:38,42.805,6.029,CST-1368DR,4907,6122,13323,0.635,551
2022-02-11T02:21:40,42.805,6.029,CST-1368DR,4907,6122,13322,0.636,551
2022-02-11T02:24:41,42.805,6.029,CST-1368DR,4907,6121,13321,0.636,551
2022-02-11T02:27:43,42.805,6.029,CST-1368DR,4907,6120,13318,0.637,551
2022-02-11T02:30:44,42.805,6.029,CST-1368DR,4907,6121,13320,0.636,551
2022-02-11T02:33:46,42.805,6.029,CST-1368DR,4907,6121,13321,0.636,551
2022-02-11T02:36:47,42.805,6.029,CST-1368DR,4907,6121,13320,0.636,551
2022-02-11T02:39:49,42.805,6.029,CST-1368DR,4907,6121,13321,0.636,551
2022-02-11T02:42:51,42.805,6.029,CST-1368DR,4907,6121,13320,0.636,550
2022-02-11T02:45:52,42.805,6.029,CST-1368DR,4907,6122,13322,0.636,551
2022-02-11T02:48:54,42.805,6.029,CST-1368DR,4907,6121,13321,0.636,551
2022-02-11T02:51:55,42.805,6.029,CST-1368DR,4907,6121,13321,0.636,551
2022-02-11T02:54:57,42.805,6.029,CST-1368DR,4907,6122,13323,0.635,551
2022-02-11T02:57:58,42.805,6.029,CST-1368DR,4907,6122,13322,0.636,551
2022-02-11T03:01:00,42.805,6.029,CST-1368DR,4907,6122,13322,0.636,551
2022-02-11T03:04:02,42.805,6.029,CST-1368DR,4907,6121,13320,0.636,551
2022-02-11T03:07:03,42.805,6.029,CST-1368DR,4907,6121,13320,0.636,551
2022-02-11T03:10:05,42.805,6.029,CST-1368DR,4907,6122,13322,0.636,551
2022-02-11T03:13:06,42.805,6.029,CST-1368DR,4907,6121,13319,0.636,551
2022-02-11T03:16:08,42.805,6.029,CST-1368DR,4907,6121,13321,0.636,551
2022-02-11T03:19:10,42.805,6.029,CST-1368DR,4907,6121,13320,0.636,551
2022-02-11T03:22:11,42.805,6.029,CST-1368DR,4907,6122,13322,0.636,551
2022-02-11T03:25:13,42.805,6.029,CST-1368DR,4907,6121,13320,0.636,551
2022-02-11T03:28:14,42.805,6.029,CST-1368DR,4907,6121,13320,0.636,551
2022-02-11T03:31:16,42.805,6.029,CST-1368DR,4907,6119,13316,0.637,551
2022-02-11T03:34:17,42.805,6.029,CST-1368DR,4907,6120,13317,0.637,551
2022-02-11T03:37:19,42.805,6.029,CST-1368DR,4907,6122,13322,0.636,551
2022-02-11T03:40:21,42.805,6.029,CST-1368DR,4907,6121,13319,0.636,551
2022-02-11T03:43:22,42.805,6.029,CST-1368DR,4907,6120,13318,0.637,551
2022-02-11T03:46:24,42.805,6.029,CST-1368DR,4907,6121,13320,0.636,551
2022-02-11T03:49:25,42.805,6.029,CST-1368DR,4907,6119,13316,0.637,551
2022-02-11T03:52:27,42.805,6.029,CST-1368DR,4907,6121,13320,0.636,551
2022-02-11T03:55:28,42.805,6.029,CST-1368DR,4907,6121,13320,0.636,551
2022-02-11T03:58:30,42.805,6.029,CST-1368DR,4907,6120,13318,0.637,551
2022-02-11T04:01:32,42.805,6.029,CST-1368DR,4907,6120,13317,0.637,551
2022-02-11T04:04:33,42.805,6.029,CST-1368DR,4907,6121,13321,0.636,551
2022-02-11T04:07:35,42.805,6.029,CST-1368DR,4907,6121,13320,0.636,551
2022-02-11T04:10:36,42.805,6.029,CST-1368DR,4907,6120,13317,0.637,551
2022-02-11T04:13:38,42.805,6.029,CST-1368DR,4907,6120,13318,0.637,551
2022-02-11T04:16:40,42.805,6.029,CST-1368DR,4907,6120,13318,0.637,551
2022-02-11T04:19:41,42.805,6.029,CST-1368DR,4907,6121,13320,0.636,551
2022-02-11T04:22:43,42.805,6.029,CST-1368DR,4907,6121,13319,0.636,551
2022-02-11T04:25:44,42.805,6.029,CST-1368DR,4907,6121,13320,0.636,551
2022-02-11T04:28:46,42.805,6.029,CST-1368DR,4907,6121,13320,0.636,551
2022-02-11T04:31:47,42.805,6.029,CST-1368DR,4907,6121,13321,0.636,551
2022-02-11T04:34:49,42.805,6.029,CST-1368DR,4907,6120,13318,0.637,551
2022-02-11T04:37:51,42.805,6.029,CST-1368DR,4907,6120,13317,0.637,551
2022-02-11T04:40:52,42.805,6.029,CST-1368DR,4907,6119,13316,0.637,551
2022-02-11T04:43:54,42.805,6.029,CST-1368DR,4907,6120,13317,0.637,551
2022-02-11T04:46:55,42.805,6.029,CST-1368DR,4907,6120,13318,0.637,550
2022-02-11T04:49:57,42.805,6.029,CST-1368DR,4907,6121,13319,0.636,551
2022-02-11T04:52:59,42.805,6.029,CST-1368DR,4907,6119,13315,0.638,551
2022-02-11T04:56:00,42.805,6.029,CST-1368DR,4907,6119,13316,0.637,551
2022-02-11T04:59:02,42.805,6.029,CST-1368DR,4907,6120,13317,0.637,551
2022-02-11T05:02:03,42.805,6.029,CST-1368DR,4907,6120,13318,0.637,551
2022-02-11T05:05:05,42.805,6.029,CST-1368DR,4907,6120,13318,0.637,551
2022-02-11T05:08:06,42.805,6.029,CST-1368DR,4907,6120,13317,0.637,551
2022-02-11T05:11:08,42.805,6.029,CST-1368DR,4907,6120,13317,0.637,551
2022-02-11T05:14:10,42.805,6.029,CST-1368DR,4907,6120,13317,0.637,551
2022-02-11T05:17:11,42.805,6.029,CST-1368DR,4907,6120,13318,0.637,551
2022-02-11T05:20:13,42.805,6.029,CST-1368DR,4907,6120,13318,0.637,551
2022-02-11T05:23:14,42.805,6.029,CST-1368DR,4907,6120,13318,0.637,551
2022-02-11T05:26:16,42.805,6.029,CST-1368DR,4907,6120,13318,0.637,551
2022-02-11T05:29:17,42.805,6.029,CST-1368DR,4907,6120,13318,0.637,551
2022-02-11T05:32:19,42.805,6.029,CST-1368DR,4907,6119,13315,0.638,550
2022-02-11T05:35:21,42.805,6.029,CST-1368DR,4907,6119,13316,0.637,551
2022-02-11T05:38:22,42.805,6.029,CST-1368DR,4906,6120,13321,0.636,551
2022-02-11T05:41:24,42.805,6.029,CST-1368DR,4907,6120,13317,0.637,551
2022-02-11T05:44:25,42.805,6.029,CST-1368DR,4907,6119,13315,0.638,551
2022-02-11T05:47:27,42.805,6.029,CST-1368DR,4907,6119,13316,0.637,551
2022-02-11T05:50:29,42.805,6.029,CST-1368DR,4907,6120,13318,0.637,551
2022-02-11T05:53:30,42.805,6.029,CST-1368DR,4907,6120,13317,0.637,551
2022-02-11T05:56:32,42.805,6.029,CST-1368DR,4907,6120,13318,0.637,551
2022-02-11T05:59:33,42.805,6.029,CST-1368DR,4907,6120,13318,0.637,551
2022-02-11T06:02:35,42.805,6.029,CST-1368DR,4907,6118,13314,0.638,551
2022-02-11T06:05:36,42.805,6.029,CST-1368DR,4907,6120,13317,0.637,550
2022-02-11T06:08:38,42.805,6.029,CST-1368DR,4907,6120,13317,0.637,551
2022-02-11T06:11:40,42.805,6.029,CST-1368DR,4907,6119,13316,0.637,551
2022-02-11T06:14:41,42.805,6.029,CST-1368DR,4906,6120,13321,0.636,551
2022-02-11T06:17:43,42.805,6.029,CST-1368DR,4907,6119,13316,0.637,551
2022-02-11T06:20:44,42.805,6.029,CST-1368DR,4907,6119,13316,0.637,551
2022-02-11T06:23:46,42.805,6.029,CST-1368DR,4907,6120,13318,0.637,551
2022-02-11T06:26:48,42.805,6.029,CST-1368DR,4906,6120,13320,0.636,551
2022-02-11T06:29:49,42.805,6.029,CST-1368DR,4907,6119,13316,0.637,551
2022-02-11T06:32:51,42.805,6.029,CST-1368DR,4906,6119,13319,0.636,551
2022-02-11T06:35:52,42.805,6.029,CST-1368DR,4907,6119,13315,0.638,551
2022-02-11T06:38:54,42.805,6.029,CST-1368DR,4907,6121,13319,0.636,551
2022-02-11T06:41:55,42.805,6.029,CST-1368DR,4906,6119,13319,0.636,551
2022-02-11T06:44:57,42.805,6.029,CST-1368DR,4907,6119,13316,0.637,551
2022-02-11T06:47:59,42.805,6.029,CST-1368DR,4907,6119,13316,0.637,551
2022-02-11T06:51:00,42.805,6.029,CST-1368DR,4906,6119,13319,0.636,551
2022-02-11T06:54:02,42.805,6.029,CST-1368DR,4906,6120,13320,0.636,551
2022-02-11T06:57:03,42.805,6.029,CST-1368DR,4906,6119,13319,0.636,551
2022-02-11T07:00:05,42.805,6.029,CST-1368DR,4907,6119,13315,0.638,551
2022-02-11T07:03:06,42.805,6.029,CST-1368DR,4907,6119,13315,0.638,551
2022-02-11T07:06:08,42.805,6.029,CST-1368DR,4906,6119,13317,0.637,551
2022-02-11T07:09:10,42.805,6.029,CST-1368DR,4906,6119,13319,0.636,551
2022-02-11T07:12:11,42.805,6.029,CST-1368DR,4906,6119,13318,0.637,551
2022-02-11T07:15:13,42.805,6.029,CST-1368DR,4906,6118,13316,0.637,551
2022-02-11T07:18:14,42.805,6.029,CST-1368DR,4906,6119,13318,0.637,551
2022-02-11T07:21:16,42.805,6.029,CST-1368DR,4906,6119,13318,0.637,551
2022-02-11T07:24:18,42.805,6.029,CST-1368DR,4906,6120,13319,0.636,551
2022-02-11T07:27:19,42.805,6.029,CST-1368DR,4906,6119,13317,0.637,551
2022-02-11T07:30:21,42.805,6.029,CST-1368DR,4906,6117,13314,0.638,551
2022-02-11T07:33:22,42.805,6.029,CST-1368DR,4906,6119,13318,0.637,551
2022-02-11T07:36:24,42.805,6.029,CST-1368DR,4906,6119,13318,0.637,551
2022-02-11T07:39:25,42.805,6.029,CST-1368DR,4906,6120,13319,0.636,551
2022-02-11T07:42:27,42.805,6.029,CST-1368DR,4906,6119,13319,0.636,551
2022-02-11T07:45:29,42.805,6.029,CST-1368DR,4906,6120,13319,0.636,551
2022-02-11T07:48:30,42.805,6.029,CST-1368DR,4906,6118,13316,0.637,551
2022-02-11T07:51:32,42.805,6.029,CST-1368DR,4906,6119,13319,0.636,551
2022-02-11T07:54:33,42.805,6.029,CST-1368DR,4906,6119,13317,0.637,551
2022-02-11T07:57:35,42.805,6.029,CST-1368DR,4906,6119,13318,0.637,551
2022-02-11T08:00:37,42.805,6.029,CST-1368DR,4906,6119,13318,0.637,551
2022-02-11T08:03:38,42.805,6.029,CST-1368DR,4906,6119,13318,0.637,551
2022-02-11T08:06:40,42.805,6.029,CST-1368DR,4906,6119,13317,0.637,551
2022-02-11T08:09:41,42.805,6.029,CST-1368DR,4906,6119,13319,0.636,551
2022-02-11T08:12:43,42.805,6.029,CST-1368DR,4906,6119,13318,0.637,551
2022-02-11T08:15:44,42.805,6.029,CST-1368DR,4906,6119,13318,0.637,551
2022-02-11T08:18:46,42.805,6.029,CST-1368DR,4906,6117,13313,0.638,551
2022-02-11T08:21:48,42.805,6.029,CST-1368DR,4906,6119,13317,0.637,551
2022-02-11T08:24:49,42.805,6.029,CST-1368DR,4906,6118,13316,0.637,551
2022-02-11T08:27:51,42.805,6.029,CST-1368DR,4906,6118,13316,0.637,551
2022-02-11T08:30:52,42.805,6.029,CST-1368DR,4906,6119,13317,0.637,551
2022-02-11T08:33:54,42.805,6.029,CST-1368DR,4906,6119,13318,0.637,551
2022-02-11T08:36:56,42.805,6.029,CST-1368DR,4906,6119,13317,0.637,551
2022-02-11T08:39:57,42.805,6.029,CST-1368DR,4906,6118,13316,0.637,551
2022-02-11T08:42:59,42.805,6.029,CST-1368DR,4906,6120,13319,0.636,551
2022-02-11T08:46:00,42.805,6.029,CST-1368DR,4906,6118,13316,0.637,551
2022-02-11T08:49:02,42.805,6.029,CST-1368DR,4906,6118,13316,0.637,551
2022-02-11T08:52:03,42.805,6.029,CST-1368DR,4906,6119,13318,0.637,551
2022-02-11T08:55:05,42.805,6.029,CST-1368DR,4906,6119,13318,0.637,551
2022-02-11T08:58:07,42.805,6.029,CST-1368DR,4906,6119,13318,0.637,551
2022-02-11T09:01:08,42.805,6.029,CST-1368DR,4906,6119,13317,0.637,551
2022-02-11T09:04:10,42.805,6.029,CST-1368DR,4906,6119,13317,0.637,551
2022-02-11T09:07:11,42.805,6.029,CST-1368DR,4906,6119,13318,0.637,551
2022-02-11T09:10:13,42.805,6.029,CST-1368DR,4906,6118,13316,0.637,551
2022-02-11T09:13:15,42.805,6.029,CST-1368DR,4906,6119,13317,0.637,551
2022-02-11T09:16:16,42.805,6.029,CST-1368DR,4906,6119,13318,0.637,551
2022-02-11T09:19:18,42.805,6.029,CST-1368DR,4906,6118,13315,0.638,551
2022-02-11T09:22:19,42.805,6.029,CST-1368DR,4906,6118,13316,0.637,551
2022-02-11T09:25:21,42.805,6.029,CST-1368DR,4906,6119,13317,0.637,551
2022-02-11T09:28:22,42.805,6.029,CST-1368DR,4906,6119,13318,0.637,551
2022-02-11T09:31:24,42.805,6.029,CST-1368DR,4906,6119,13318,0.637,551
2022-02-11T09:34:26,42.805,6.029,CST-1368DR,4906,6117,13315,0.638,551
2022-02-11T09:37:27,42.805,6.029,CST-1368DR,4906,6119,13318,0.637,551
2022-02-11T09:40:29,42.805,6.029,CST-1368DR,4906,6119,13317,0.637,551
2022-02-11T09:43:30,42.805,6.029,CST-1368DR,4906,6118,13316,0.637,551
2022-02-11T09:46:32,42.805,6.029,CST-1368DR,4906,6117,13315,0.638,551
2022-02-11T09:49:33,42.805,6.029,CST-1368DR,4906,6118,13316,0.637,551
2022-02-11T09:52:35,42.805,6.029,CST-1368DR,4906,6118,13316,0.637,551
2022-02-11T09:55:37,42.805,6.029,CST-1368DR,4906,6118,13316,0.637,551
2022-02-11T09:58:38,42.805,6.029,CST-1368DR,4906,6118,13316,0.637,550
2022-02-11T10:01:40,42.805,6.029,CST-1368DR,4906,6118,13316,0.637,551
2022-02-11T10:04:41,42.805,6.029,CST-1368DR,4906,6118,13316,0.637,551
2022-02-11T10:07:43,42.805,6.029,CST-1368DR,4906,6117,13315,0.638,551
2022-02-11T10:10:45,42.805,6.029,CST-1368DR,4906,6118,13316,0.637,551
2022-02-11T10:13:46,42.805,6.029,CST-1368DR,4906,6118,13316,0.637,551
2022-02-11T10:16:48,42.805,6.029,CST-1368DR,4906,6118,13316,0.637,551
2022-02-11T10:19:49,42.805,6.029,CST-1368DR,4906,6118,13316,0.637,551
2022-02-11T10:22:51,42.805,6.029,CST-1368DR,4906,6117,13315,0.638,551
2022-02-11T10:25:52,42.805,6.029,CST-1368DR,4906,6118,13316,0.637,551
2022-02-11T10:28:54,42.805,6.029,CST-1368DR,4906,6118,13316,0.637,551
2022-02-11T10:31:56,42.805,6.029,CST-1368DR,4906,6118,13316,0.637,551
2022-02-11T10:34:57,42.805,6.029,CST-1368DR,4906,6118,13316,0.637,551
2022-02-11T10:37:59,42.805,6.029,CST-1368DR,4906,6118,13316,0.637,551
2022-02-11T10:41:00,42.805,6.029,CST-1368DR,4906,6117,13313,0.638,550
2022-02-11T10:44:02,42.805,6.029,CST-1368DR,4906,6118,13315,0.638,551
2022-02-11T10:47:04,42.805,6.029,CST-1368DR,4906,6117,13315,0.638,551
2022-02-11T10:50:05,42.805,6.029,CST-1368DR,4906,6116,13311,0.639,551
2022-02-11T10:53:07,42.805,6.029,CST-1368DR,4906,6118,13316,0.637,551
2022-02-11T10:56:08,42.805,6.029,CST-1368DR,4906,6118,13315,0.638,551
2022-02-11T10:59:10,42.805,6.029,CST-1368DR,4906,6119,13318,0.637,551
2022-02-11T11:02:11,42.805,6.029,CST-1368DR,4906,6119,13317,0.637,551
2022-02-11T11:05:13,42.805,6.029,CST-1368DR,4906,6118,13316,0.637,551
2022-02-11T11:08:15,42.805,6.029,CST-1368DR,4906,6117,13315,0.638,551
2022-02-11T11:11:16,42.805,6.029,CST-1368DR,4906,6117,13315,0.638,551
2022-02-11T11:14:18,42.805,6.029,CST-1368DR,4906,6118,13316,0.637,551
2022-02-11T11:17:19,42.805,6.029,CST-1368DR,4906,6118,13315,0.638,551
2022-02-11T11:20:21,42.805,6.029,CST-1368DR,4906,6117,13315,0.638,551
2022-02-11T11:23:22,42.805,6.029,CST-1368DR,4906,6118,13315,0.638,551
2022-02-11T11:26:24,42.805,6.029,CST-1368DR,4906,6117,13314,0.638,551
2022-02-11T11:29:26,42.805,6.029,CST-1368DR,4906,6117,13314,0.638,551
2022-02-11T11:32:27,42.805,6.029,CST-1368DR,4906,6116,13312,0.639,551
2022-02-11T11:35:29,42.805,6.029,CST-1368DR,4906,6117,13313,0.638,551
2022-02-11T11:38:30,42.805,6.029,CST-1368DR,4906,6118,13316,0.637,551
2022-02-11T11:41:32,42.805,6.029,CST-1368DR,4906,6118,13316,0.637,551
2022-02-11T11:44:34,42.805,6.029,CST-1368DR,4906,6118,13316,0.637,551
2022-02-11T11:47:35,42.805,6.029,CST-1368DR,4906,6117,13313,0.638,551
2022-02-11T11:50:37,42.805,6.029,CST-1368DR,4906,6117,13313,0.638,551
2022-02-11T11:53:38,42.805,6.029,CST-1368DR,4906,6116,13312,0.639,551
2022-02-11T11:56:40,42.805,6.029,CST-1368DR,4906,6117,13314,0.638,551
2022-02-11T11:59:41,42.805,6.029,CST-1368DR,4906,6117,13313,0.638,551
2022-02-11T12:02:43,42.805,6.029,CST-1368DR,4906,6117,13315,0.638,551
2022-02-11T12:05:45,42.805,6.029,CST-1368DR,4906,6117,13315,0.638,551
2022-02-11T12:08:46,42.805,6.029,CST-1368DR,4906,6116,13311,0.639,551
2022-02-11T12:11:48,42.805,6.029,CST-1368DR,4906,6117,13315,0.638,551
2022-02-11T12:14:49,42.805,6.029,CST-1368DR,4906,6117,13315,0.638,551
2022-02-11T12:17:51,42.805,6.029,CST-1368DR,4906,6116,13312,0.639,551
2022-02-11T12:20:53,42.805,6.029,CST-1368DR,4906,6117,13315,0.638,551
2022-02-11T12:23:54,42.805,6.029,CST-1368DR,4906,6116,13312,0.639,551
2022-02-11T12:26:56,42.805,6.029,CST-1368DR,4906,6117,13315,0.638,551
2022-02-11T12:29:57,42.805,6.029,CST-1368DR,4906,6117,13313,0.638,551
2022-02-11T12:32:59,42.805,6.029,CST-1368DR,4906,6117,13315,0.638,551
2022-02-11T12:36:00,42.805,6.029,CST-1368DR,4906,6116,13312,0.639,551
2022-02-11T12:39:02,42.805,6.029,CST-1368DR,4906,6117,13313,0.638,551
2022-02-11T12:42:04,42.805,6.029,CST-1368DR,4906,6116,13312,0.639,551
2022-02-11T12:45:05,42.805,6.029,CST-1368DR,4906,6116,13312,0.639,551
2022-02-11T12:48:07,42.805,6.029,CST-1368DR,4906,6116,13312,0.639,551
2022-02-11T12:51:08,42.805,6.029,CST-1368DR,4906,6116,13312,0.639,551
2022-02-11T12:54:10,42.805,6.029,CST-1368DR,4906,6116,13311,0.639,551
2022-02-11T12:57:11,42.805,6.029,CST-1368DR,4906,6116,13311,0.639,551
2022-02-11T13:00:13,42.805,6.029,CST-1368DR,4906,6115,13309,0.639,551
2022-02-11T13:03:15,42.805,6.029,CST-1368DR,4906,6116,13312,0.639,551
2022-02-11T13:06:16,42.805,6.029,CST-1368DR,4906,6116,13312,0.639,551
2022-02-11T13:09:18,42.805,6.029,CST-1368DR,4906,6115,13310,0.639,551
2022-02-11T13:12:19,42.805,6.029,CST-1368DR,4906,6116,13312,0.639,551
2022-02-11T13:15:21,42.805,6.029,CST-1368DR,4906,6116,13312,0.639,550
2022-02-11T13:18:23,42.805,6.029,CST-1368DR,4906,6116,13312,0.639,551
2022-02-11T13:21:24,42.805,6.029,CST-1368DR,4906,6115,13309,0.639,551
2022-02-11T13:24:26,42.805,6.029,CST-1368DR,4906,6115,13310,0.639,551
2022-02-11T13:27:27,42.805,6.029,CST-1368DR,4906,6116,13311,0.639,550
2022-02-11T13:30:29,42.805,6.029,CST-1368DR,4906,6116,13312,0.639,551
2022-02-11T13:33:30,42.805,6.029,CST-1368DR,4906,6115,13310,0.639,551
2022-02-11T13:36:32,42.805,6.029,CST-1368DR,4906,6114,13307,0.640,551
2022-02-11T13:39:34,42.805,6.029,CST-1368DR,4906,6115,13310,0.639,551
2022-02-11T13:42:35,42.805,6.029,CST-1368DR,4906,6115,13310,0.639,551
2022-02-11T13:45:37,42.805,6.029,CST-1368DR,4906,6117,13313,0.638,551
2022-02-11T13:48:38,42.805,6.029,CST-1368DR,4906,6116,13312,0.639,551
2022-02-11T13:51:40,42.805,6.029,CST-1368DR,4906,6115,13310,0.639,551
2022-02-11T13:54:42,42.805,6.029,CST-1368DR,4906,6116,13311,0.639,551
2022-02-11T13:57:43,42.805,6.029,CST-1368DR,4906,6115,13310,0.639,551
2022-02-11T14:00:45,42.805,6.029,CST-1368DR,4906,6116,13312,0.639,551
2022-02-11T14:03:46,42.805,6.029,CST-1368DR,4906,6116,13312,0.639,551
2022-02-11T14:06:48,42.805,6.029,CST-1368DR,4906,6116,13311,0.639,551
2022-02-11T14:09:49,42.805,6.029,CST-1368DR,4906,6116,13311,0.639,551
2022-02-11T14:12:51,42.805,6.029,CST-1368DR,4906,6115,13310,0.639,551
2022-02-11T14:15:53,42.805,6.029,CST-1368DR,4906,6116,13311,0.639,551
2022-02-11T14:18:54,42.805,6.029,CST-1368DR,4906,6116,13311,0.639,551
2022-02-11T14:21:56,42.805,6.029,CST-1368DR,4906,6114,13307,0.640,551
2022-02-11T14:24:57,42.805,6.029,CST-1368DR,4906,6116,13311,0.639,551
2022-02-11T14:27:59,42.805,6.029,CST-1368DR,4906,6116,13312,0.639,551
2022-02-11T14:31:00,42.805,6.029,CST-1368DR,4906,6114,13307,0.640,551
2022-02-11T14:34:02,42.805,6.029,CST-1368DR,4906,6116,13311,0.639,551
2022-02-11T14:37:04,42.805,6.029,CST-1368DR,4906,6116,13311,0.639,551
2022-02-11T14:40:05,42.805,6.029,CST-1368DR,4906,6114,13308,0.640,551
2022-02-11T14:43:07,42.805,6.029,CST-1368DR,4906,6116,13312,0.639,551
2022-02-11T14:46:08,42.805,6.029,CST-1368DR,4906,6115,13310,0.639,551
2022-02-11T14:49:10,42.805,6.029,CST-1368DR,4906,6117,13313,0.638,551
2022-02-11T14:52:12,42.805,6.029,CST-1368DR,4906,6116,13312,0.639,551
2022-02-11T14:55:13,42.805,6.029,CST-1368DR,4906,6116,13311,0.639,551
2022-02-11T14:58:15,42.805,6.029,CST-1368DR,4906,6116,13311,0.639,551
2022-02-11T15:01:16,42.805,6.029,CST-1368DR,4906,6115,13310,0.639,551
2022-02-11T15:04:18,42.805,6.029,CST-1368DR,4906,6117,13314,0.638,551
2022-02-11T15:07:19,42.805,6.029,CST-1368DR,4906,6116,13311,0.639,551
2022-02-11T15:10:21,42.805,6.029,CST-1368DR,4906,6116,13312,0.639,551
2022-02-11T15:13:23,42.805,6.029,CST-1368DR,4906,6116,13312,0.639,551
2022-02-11T15:16:24,42.805,6.029,CST-1368DR,4906,6117,13314,0.638,551
2022-02-11T15:19:26,42.805,6.029,CST-1368DR,4906,6113,13306,0.640,551
2022-02-11T15:22:27,42.805,6.029,CST-1368DR,4906,6115,13310,0.639,551
2022-02-11T15:25:29,42.805,6.029,CST-1368DR,4906,6116,13311,0.639,551
2022-02-11T15:28:30,42.805,6.029,CST-1368DR,4906,6116,13312,0.639,551
2022-02-11T15:31:32,42.805,6.029,CST-1368DR,4906,6115,13310,0.639,551
2022-02-11T15:34:34,42.805,6.029,CST-1368DR,4906,6115,13310,0.639,551
2022-02-11T15:37:35,42.805,6.029,CST-1368DR,4906,6115,13310,0.639,551
2022-02-11T15:40:37,42.805,6.029,CST-1368DR,4906,6115,13310,0.639,551
2022-02-11T15:43:38,42.805,6.029,CST-1368DR,4906,6116,13312,0.639,551
2022-02-11T15:46:40,42.805,6.029,CST-1368DR,4906,6114,13307,0.640,551
2022-02-11T15:49:42,42.805,6.029,CST-1368DR,4906,6114,13308,0.640,551
2022-02-11T15:52:43,42.805,6.029,CST-1368DR,4906,6116,13311,0.639,551
2022-02-11T15:55:45,42.805,6.029,CST-1368DR,4906,6115,13310,0.639,551
2022-02-11T15:58:46,42.805,6.029,CST-1368DR,4906,6116,13311,0.639,551
2022-02-11T16:01:48,42.805,6.029,CST-1368DR,4906,6114,13308,0.640,551
2022-02-11T16:04:49,42.805,6.029,CST-1368DR,4906,6115,13310,0.639,551
2022-02-11T16:07:51,42.805,6.029,CST-1368DR,4906,6115,13310,0.639,551
2022-02-11T16:10:53,42.805,6.029,CST-1368DR,4906,6115,13310,0.639,551
2022-02-11T16:13:54,42.805,6.029,CST-1368DR,4906,6115,13310,0.639,551
2022-02-11T16:16:56,42.805,6.029,CST-1368DR,4906,6114,13307,0.640,551
2022-02-11T16:19:57,42.805,6.029,CST-1368DR,4906,6114,13308,0.640,551
2022-02-11T16:22:59,42.805,6.029,CST-1368DR,4906,6115,13309,0.639,551
2022-02-11T16:26:01,42.805,6.029,CST-1368DR,4906,6114,13307,0.640,551
2022-02-11T16:29:02,42.805,6.029,CST-1368DR,4906,6114,13307,0.640,551
2022-02-11T16:32:04,42.805,6.029,CST-1368DR,4906,6115,13309,0.639,551
2022-02-11T16:35:05,42.805,6.029,CST-1368DR,4906,6114,13308,0.640,551
2022-02-11T16:38:07,42.805,6.029,CST-1368DR,4906,6114,13307,0.640,551
2022-02-11T16:41:08,42.805,6.029,CST-1368DR,4906,6115,13309,0.639,551
2022-02-11T16:44:10,42.805,6.029,CST-1368DR,4906,6115,13310,0.639,551
2022-02-11T16:47:12,42.805,6.029,CST-1368DR,4906,6115,13310,0.639,551
2022-02-11T16:50:13,42.805,6.029,CST-1368DR,4906,6114,13307,0.640,551
2022-02-11T16:53:15,42.805,6.029,CST-1368DR,4906,6114,13308,0.640,551